GW2622 Weather Reports


Display with metric or nautical units.
time (UTC)temp
F
wind
direction
speed
MPH
gust
MPH
rain 1hr
in
rain 24hr
in
rain mn
in
humidity
%
barometer
mb
20260905023521 82 252 1.0 2.0 0.00 0.03 0.03 87 1013.7
20260905023021 82 267 1.0 2.0 0.00 0.03 0.03 87 1013.5
20260905022515 83 269 0.0 1.0 0.00 0.03 0.03 86 1013.7
20260905022010 83 269 0.0 1.0 0.00 0.03 0.03 85 1013.5
20260905021510 83 270 0.0 1.0 0.00 0.03 0.03 84 1013.6
20260905021005 83 269 0.0 1.0 0.00 0.03 0.03 84 1013.4
20260905020459 83 269 0.0 1.0 0.00 0.03 0.03 85 1013.6
20260905015954 84 271 1.0 1.0 0.00 0.03 0.03 85 1013.3
20260905015452 84 272 0.0 0.0 0.00 0.03 0.03 85 1013.5
20260905014952 84 272 0.0 0.0 0.00 0.03 0.03 85 1013.3
20260905014447 84 272 0.0 0.0 0.00 0.03 0.03 85 1013.2
20260905013942 84 272 0.0 0.0 0.00 0.03 0.03 85 1013.2
20260905013439 84 272 0.0 0.0 0.00 0.03 0.03 86 1013.0
20260905012933 84 272 0.0 0.0 0.00 0.03 0.03 85 1013.0
20260905012428 84 272 0.0 0.0 0.00 0.03 0.03 84 1012.9
20260905011925 84 272 0.0 0.0 0.00 0.03 0.03 84 1012.8
20260905011421 84 272 0.0 0.0 0.00 0.03 0.03 83 1012.8
20260905010916 84 272 0.0 0.0 0.00 0.03 0.03 83 1012.7
20260905010410 84 272 0.0 0.0 0.00 0.03 0.03 83 1012.7
20260905005901 84 272 0.0 0.0 0.00 0.03 0.03 83 1012.8
20260905005357 85 272 0.0 0.0 0.00 0.03 0.03 85 1012.6
20260905004851 85 272 0.0 0.0 0.00 0.03 0.03 85 1012.6
20260905004346 85 272 0.0 0.0 0.00 0.03 0.03 84 1012.8
20260905003841 86 272 0.0 0.0 0.00 0.03 0.03 84 1012.6
20260905003337 86 272 0.0 0.0 0.00 0.03 0.03 84 1012.6
20260905002833 86 272 0.0 0.0 0.00 0.03 0.03 84 1012.8
20260905002332 87 272 0.0 0.0 0.00 0.03 0.03 84 1012.9
20260905001827 87 272 0.0 0.0 0.00 0.03 0.03 83 1012.7
20260905001326 87 275 1.0 1.0 0.00 0.03 0.03 83 1012.6
20260905000822 88 277 0.0 0.0 0.00 0.03 0.03 83 1012.8
20260905000318 88 277 0.0 0.0 0.00 0.03 0.03 82 1012.8
20260904235812 88 277 0.0 0.0 0.00 0.03 0.03 81 1012.7
20260904235308 89 277 0.0 0.0 0.00 0.03 0.03 81 1012.7
20260904234803 89 277 0.0 0.0 0.00 0.03 0.03 80 1012.7
20260904234258 90 277 0.0 0.0 0.00 0.03 0.03 79 1012.6
20260904233754 90 277 0.0 0.0 0.00 0.03 0.03 79 1012.6
20260904233250 90 240 2.0 2.0 0.00 0.03 0.03 78 1012.6
20260904232746 90 260 1.0 2.0 0.00 0.03 0.03 76 1012.7
20260904232242 90 270 1.0 2.0 0.00 0.03 0.03 76 1012.5
20260904231737 91 257 2.0 2.0 0.00 0.03 0.03 75 1012.5
20260904231233 91 274 1.0 1.0 0.00 0.03 0.03 73 1012.5
20260904230732 92 276 0.0 0.0 0.00 0.03 0.03 78 1012.5
20260904230226 91 276 0.0 1.0 0.00 0.03 0.03 77 1012.5
20260904225726 91 272 0.0 2.0 0.00 0.03 0.03 72 1012.5
20260904225220 91 282 1.0 1.0 0.00 0.03 0.03 77 1012.4
20260904224719 91 247 1.0 2.0 0.00 0.03 0.03 76 1012.4
20260904224214 91 276 1.0 1.0 0.00 0.03 0.03 80 1012.5
20260904223713 90 270 2.0 2.0 0.00 0.03 0.03 79 1012.4
20260904223209 89 269 1.0 1.0 0.00 0.03 0.03 80 1012.5
20260904222704 87 303 0.0 0.0 0.00 0.03 0.03 88 1012.2
20260904222200 86 303 0.0 0.0 0.00 0.03 0.03 91 1012.3
20260904221659 86 303 0.0 0.0 0.00 0.03 0.03 90 1012.4
20260904221154 86 303 0.0 0.0 0.12 0.03 0.03 85 1012.4
20260904220649 88 303 0.0 1.0 0.17 0.03 0.03 84 1012.4
20260904220144 89 280 0.0 1.0 0.05 0.01 0.01 79 1012.3
20260904215638 89 260 1.0 2.0 0.00 0.00 0.00 73 1012.3
20260904215135 90 221 3.0 5.0 0.00 0.00 0.00 73 1012.4
20260904214635 90 225 3.0 5.0 0.00 0.00 0.00 71 1012.1
20260904214130 90 236 3.0 5.0 0.00 0.00 0.00 71 1012.4
20260904213628 90 236 3.0 3.0 0.00 0.00 0.00 72 1012.5
20260904213125 91 254 3.0 5.0 0.00 0.00 0.00 71 1012.2
20260904212620 89 244 1.0 3.0 0.00 0.00 0.00 76 1012.3
20260904212115 89 241 2.0 2.0 0.00 0.00 0.00 77 1012.5
20260904211614 90 248 1.0 2.0 0.00 0.00 0.00 76 1012.5
20260904211110 90 263 1.0 2.0 0.00 0.00 0.00 75 1012.4
20260904210609 91 277 1.0 2.0 0.00 0.00 0.00 72 1012.6
20260904210100 93 229 4.0 6.0 0.00 0.00 0.00 61 1012.4
20260904205555 93 234 3.0 8.0 0.00 0.00 0.00 60 1012.4
20260904205051 94 244 4.0 8.0 0.00 0.00 0.00 58 1012.6
20260904204547 96 216 4.0 9.0 0.00 0.00 0.00 58 1012.6
20260904204043 96 205 3.0 7.0 0.00 0.00 0.00 56 1012.5
20260904203538 96 196 5.0 9.0 0.00 0.00 0.00 56 1012.4
20260904203035 96 213 5.0 7.0 0.00 0.00 0.00 55 1012.5
20260904202530 95 182 5.0 9.0 0.00 0.00 0.00 56 1012.5
20260904202026 96 234 7.0 10.0 0.00 0.00 0.00 56 1012.7
20260904201521 96 200 3.0 6.0 0.00 0.00 0.00 56 1012.7
20260904201016 96 251 3.0 5.0 0.00 0.00 0.00 55 1012.6
20260904200514 96 278 3.0 11.0 0.00 0.00 0.00 58 1012.7
20260904200010 95 208 5.0 9.0 0.00 0.00 0.00 57 1012.9
20260904195508 95 201 5.0 8.0 0.00 0.00 0.00 57 1012.8
20260904195008 96 237 5.0 7.0 0.00 0.00 0.00 56 1012.6
20260904194503 95 214 8.0 11.0 0.00 0.00 0.00 56 1012.5
20260904193957 95 188 5.0 9.0 0.00 0.00 0.00 58 1012.6
20260904193452 95 243 6.0 9.0 0.00 0.00 0.00 56 1012.5
20260904192948 95 174 6.0 11.0 0.00 0.00 0.00 57 1012.7
20260904192443 94 202 5.0 11.0 0.00 0.00 0.00 59 1012.6
20260904191940 94 172 5.0 8.0 0.00 0.00 0.00 59 1012.7
20260904191436 95 203 9.0 11.0 0.00 0.00 0.00 57 1012.6
20260904190932 95 199 9.0 15.0 0.00 0.00 0.00 58 1012.7
20260904190426 96 217 8.0 9.0 0.00 0.00 0.00 59 1012.6
20260904185923 95 249 5.0 7.0 0.00 0.00 0.00 59 1012.8
20260904185418 94 168 3.0 10.0 0.00 0.00 0.00 60 1012.8
20260904184913 94 277 8.0 9.0 0.00 0.00 0.00 59 1012.8
20260904184408 93 191 8.0 10.0 0.00 0.00 0.00 60 1013.0
20260904183903 94 221 5.0 13.0 0.00 0.00 0.00 61 1013.0
20260904183358 93 233 3.0 8.0 0.00 0.00 0.00 62 1013.1
20260904182854 94 146 5.0 8.0 0.00 0.00 0.00 61 1013.1
20260904182348 93 244 5.0 9.0 0.00 0.00 0.00 62 1013.0
20260904181843 93 175 7.0 8.0 0.00 0.00 0.00 61 1013.1
20260904181338 94 199 5.0 8.0 0.00 0.00 0.00 60 1013.0
20260904180834 93 286 4.0 9.0 0.00 0.00 0.00 61 1013.3
20260904180329 93 214 10.0 11.0 0.00 0.00 0.00 62 1013.3
20260904175828 93 274 5.0 9.0 0.00 0.00 0.00 60 1013.1
20260904175327 92 193 7.0 9.0 0.00 0.00 0.00 62 1013.3
20260904174827 93 184 7.0 9.0 0.00 0.00 0.00 64 1013.3
20260904174323 92 211 4.0 9.0 0.00 0.00 0.00 63 1013.1
20260904173819 92 218 7.0 9.0 0.00 0.00 0.00 62 1013.2
20260904173314 92 197 6.0 9.0 0.00 0.00 0.00 64 1013.3
20260904172810 92 301 5.0 8.0 0.00 0.00 0.00 63 1013.3
20260904172309 91 214 7.0 9.0 0.00 0.00 0.00 62 1013.4
20260904171804 91 206 5.0 10.0 0.00 0.00 0.00 63 1013.6
20260904171259 91 235 4.0 9.0 0.00 0.00 0.00 64 1013.5
20260904170755 91 215 7.0 10.0 0.00 0.00 0.00 63 1013.6
20260904170251 91 205 7.0 9.0 0.00 0.00 0.00 63 1013.5
20260904165750 90 186 6.0 9.0 0.00 0.00 0.00 64 1013.5
20260904165244 90 215 8.0 11.0 0.00 0.00 0.00 64 1013.6
20260904164738 91 228 7.0 9.0 0.00 0.00 0.00 64 1013.7
20260904164234 90 221 7.0 11.0 0.00 0.00 0.00 65 1013.7
20260904163730 89 219 5.0 9.0 0.00 0.00 0.00 67 1013.6
20260904163225 90 219 4.0 8.0 0.00 0.00 0.00 66 1013.5
20260904162724 90 224 3.0 8.0 0.00 0.00 0.00 67 1013.7
20260904162219 89 180 3.0 9.0 0.00 0.00 0.00 67 1013.7
20260904161715 89 218 4.0 8.0 0.00 0.00 0.00 66 1013.6
20260904161209 89 231 3.0 10.0 0.00 0.00 0.00 67 1013.7
20260904160705 89 226 5.0 8.0 0.00 0.00 0.00 69 1013.4
20260904160201 88 218 7.0 9.0 0.00 0.00 0.00 69 1013.6
20260904155655 88 193 5.0 7.0 0.00 0.00 0.00 70 1013.4
20260904155155 88 167 7.0 11.0 0.00 0.00 0.00 69 1013.5
20260904154653 88 225 4.0 8.0 0.00 0.00 0.00 71 1013.5
20260904154153 88 196 6.0 10.0 0.00 0.00 0.00 69 1013.4
20260904153648 88 207 5.0 10.0 0.00 0.00 0.00 69 1013.4
20260904153144 88 172 7.0 8.0 0.00 0.00 0.00 70 1013.3
20260904152640 87 208 4.0 7.0 0.00 0.00 0.00 70 1013.4
20260904152136 87 203 6.0 7.0 0.00 0.00 0.00 71 1013.2
20260904151630 87 215 6.0 10.0 0.00 0.00 0.00 72 1013.3
20260904151129 86 209 3.0 6.0 0.00 0.00 0.00 72 1013.4
20260904150625 86 122 6.0 10.0 0.00 0.00 0.00 72 1013.4
20260904150120 86 226 6.0 8.0 0.00 0.00 0.00 73 1013.4
20260904145618 85 172 7.0 11.0 0.00 0.00 0.00 75 1013.4
20260904145114 84 190 4.0 9.0 0.00 0.00 0.00 77 1013.3
20260904144609 84 192 5.0 8.0 0.00 0.00 0.00 76 1013.5
20260904144105 84 163 6.0 7.0 0.00 0.00 0.00 77 1013.5
20260904143601 84 227 5.0 7.0 0.00 0.00 0.00 76 1013.3
20260904143057 83 184 6.0 8.0 0.00 0.00 0.00 77 1013.3
20260904142554 82 222 5.0 8.0 0.00 0.00 0.00 79 1013.4
20260904142053 82 227 4.0 8.0 0.00 0.00 0.00 80 1013.3
20260904141549 81 229 6.0 8.0 0.00 0.00 0.00 81 1013.4
20260904141044 81 217 5.0 7.0 0.00 0.00 0.00 81 1013.4
20260904140540 81 195 4.0 6.0 0.00 0.00 0.00 81 1013.3
20260904140039 81 184 7.0 8.0 0.00 0.00 0.00 81 1013.4
20260904135539 80 195 5.0 7.0 0.00 0.00 0.00 82 1013.4
20260904135035 80 188 5.0 6.0 0.00 0.00 0.00 82 1013.4
20260904134530 80 230 4.0 6.0 0.00 0.00 0.00 82 1013.3
20260904134025 79 256 4.0 6.0 0.00 0.00 0.00 84 1013.3
20260904133520 79 279 2.0 3.0 0.00 0.00 0.00 84 1013.4
20260904133016 79 260 1.0 3.0 0.00 0.00 0.00 84 1013.1
20260904132515 78 160 5.0 6.0 0.00 0.00 0.00 84 1013.3
20260904132010 78 242 3.0 3.0 0.00 0.00 0.00 85 1013.0
20260904131505 78 269 2.0 3.0 0.00 0.00 0.00 85 1013.0
20260904131001 77 272 1.0 2.0 0.00 0.00 0.00 86 1013.3
20260904130459 78 260 1.0 2.0 0.00 0.00 0.00 86 1013.1
20260904125954 77 187 2.0 2.0 0.00 0.00 0.00 86 1013.0
20260904125451 77 252 1.0 2.0 0.00 0.00 0.00 87 1013.2
20260904124950 77 237 2.0 3.0 0.00 0.00 0.00 87 1013.0
20260904124446 77 221 2.0 2.0 0.00 0.00 0.00 87 1013.1
20260904123942 77 234 2.0 3.0 0.00 0.00 0.00 87 1012.8
20260904123436 77 242 2.0 2.0 0.00 0.00 0.00 87 1013.0
20260904122931 76 257 1.0 2.0 0.00 0.00 0.00 87 1012.7
20260904122426 76 274 1.0 2.0 0.00 0.00 0.00 87 1012.7
20260904121920 75 278 1.0 1.0 0.00 0.00 0.00 88 1012.9
20260904121417 75 255 2.0 2.0 0.00 0.00 0.00 88 1012.9
20260904120913 75 267 2.0 2.0 0.00 0.00 0.00 89 1012.8
20260904120409 74 264 1.0 2.0 0.00 0.00 0.00 89 1012.8
20260904115904 74 270 0.0 1.0 0.00 0.00 0.00 90 1012.9
20260904115359 74 265 1.0 2.0 0.00 0.00 0.00 90 1012.7
20260904114853 74 238 2.0 2.0 0.00 0.00 0.00 90 1012.8
20260904114348 74 244 2.0 2.0 0.00 0.00 0.00 89 1012.5
20260904113843 74 247 2.0 2.0 0.00 0.00 0.00 89 1012.5
20260904113342 74 228 3.0 3.0 0.00 0.00 0.00 90 1012.4
20260904112837 74 235 2.0 2.0 0.00 0.00 0.00 89 1012.5
20260904112333 74 235 2.0 3.0 0.00 0.00 0.00 89 1012.4
20260904111828 74 230 2.0 3.0 0.00 0.00 0.00 89 1012.5
20260904111324 74 256 1.0 3.0 0.00 0.00 0.00 89 1012.3
20260904110820 74 250 1.0 3.0 0.00 0.00 0.00 89 1012.2
20260904110319 74 257 1.0 2.0 0.00 0.00 0.00 89 1012.2
20260904105813 74 248 1.0 3.0 0.00 0.00 0.00 89 1012.2
20260904105308 74 244 2.0 3.0 0.00 0.00 0.00 89 1012.2
20260904104803 74 237 2.0 3.0 0.00 0.00 0.00 89 1012.3
20260904104259 74 242 2.0 3.0 0.00 0.00 0.00 89 1012.1
20260904103756 74 226 2.0 3.0 0.00 0.00 0.00 89 1012.1
20260904103255 74 234 2.0 3.0 0.00 0.00 0.00 89 1012.1
20260904102751 74 244 1.0 2.0 0.00 0.00 0.00 89 1012.1
20260904102246 74 245 1.0 2.0 0.00 0.00 0.00 89 1012.2
20260904101742 74 246 1.0 1.0 0.00 0.00 0.00 90 1012.0
20260904101238 74 246 0.0 0.0 0.00 0.00 0.00 90 1012.0
20260904100734 74 246 0.0 1.0 0.00 0.00 0.00 89 1012.0
20260904100230 75 245 1.0 2.0 0.00 0.00 0.00 89 1012.1
20260904095729 75 245 1.0 2.0 0.00 0.00 0.00 89 1012.0
20260904095224 75 245 2.0 2.0 0.00 0.00 0.00 89 1011.9
20260904094719 75 246 2.0 2.0 0.00 0.00 0.00 88 1012.0
20260904094219 75 249 1.0 2.0 0.00 0.00 0.00 88 1011.9
20260904093716 75 237 2.0 2.0 0.00 0.00 0.00 88 1011.8
20260904093215 75 228 3.0 3.0 0.00 0.00 0.00 88 1011.8
20260904092711 75 231 3.0 5.0 0.00 0.00 0.00 88 1011.7
20260904092207 75 234 2.0 3.0 0.00 0.00 0.00 88 1011.7
20260904091703 75 243 2.0 3.0 0.00 0.00 0.00 88 1011.7
20260904091158 75 230 3.0 3.0 0.00 0.00 0.00 88 1011.6
20260904090653 76 235 2.0 2.0 0.00 0.00 0.00 87 1011.4
20260904090149 76 227 2.0 2.0 0.00 0.00 0.00 87 1011.5
20260904085644 76 222 1.0 3.0 0.00 0.00 0.00 87 1011.5
20260904085143 75 207 2.0 3.0 0.00 0.00 0.00 87 1011.5
20260904084638 75 245 2.0 3.0 0.00 0.00 0.00 88 1011.4
20260904084135 75 213 2.0 3.0 0.00 0.00 0.00 88 1011.4
20260904083631 76 207 2.0 2.0 0.00 0.00 0.00 88 1011.6
20260904083127 76 227 2.0 2.0 0.00 0.00 0.00 87 1011.5
20260904082621 76 224 2.0 2.0 0.00 0.00 0.00 87 1011.6
20260904082117 76 219 2.0 3.0 0.00 0.00 0.00 87 1011.5
20260904081612 76 231 2.0 3.0 0.00 0.00 0.00 86 1011.4
20260904081107 76 199 3.0 3.0 0.00 0.00 0.00 86 1011.4
20260904080603 76 241 1.0 2.0 0.00 0.00 0.00 87 1011.5
20260904080059 76 246 2.0 2.0 0.00 0.00 0.00 87 1011.3
20260904075556 76 248 1.0 2.0 0.00 0.00 0.00 86 1011.5
20260904075055 77 250 1.0 3.0 0.00 0.00 0.00 85 1011.5
20260904074555 77 208 2.0 3.0 0.00 0.00 0.00 85 1011.6
20260904074050 77 181 3.0 3.0 0.00 0.00 0.00 84 1011.6
20260904073544 77 196 2.0 3.0 0.00 0.00 0.00 84 1011.6
20260904073041 77 252 2.0 3.0 0.00 0.00 0.00 84 1011.6
20260904072536 77 156 3.0 5.0 0.00 0.00 0.00 84 1011.5
20260904072031 77 178 2.0 3.0 0.00 0.00 0.00 84 1011.6
20260904071527 77 225 2.0 2.0 0.00 0.00 0.00 85 1011.7
20260904071022 77 241 1.0 2.0 0.00 0.00 0.00 85 1011.6
20260904070520 78 171 2.0 3.0 0.00 0.00 0.00 84 1011.6
20260904070015 78 186 2.0 3.0 0.00 0.00 0.00 83 1011.6
20260904065510 78 186 3.0 5.0 0.00 0.00 0.00 83 1011.8
20260904065007 77 161 3.0 3.0 0.00 0.00 0.00 84 1011.7
20260904064503 77 187 3.0 3.0 0.00 0.00 0.00 85 1011.6
20260904063957 77 188 3.0 3.0 0.00 0.00 0.00 85 1011.9
20260904063453 77 198 3.0 3.0 0.00 0.00 0.00 85 1011.8
20260904062948 77 196 2.0 3.0 0.00 0.00 0.00 85 1011.8
20260904062444 77 186 3.0 3.0 0.00 0.00 0.00 85 1012.0
20260904061940 77 204 3.0 3.0 0.00 0.00 0.00 85 1011.8
20260904061436 77 177 3.0 5.0 0.00 0.00 0.00 85 1011.8
20260904060932 77 193 2.0 3.0 0.00 0.00 0.00 85 1011.9
20260904060427 77 192 2.0 5.0 0.00 0.00 0.00 85 1011.8
20260904055923 77 189 3.0 5.0 0.00 0.00 0.00 85 1011.8
20260904055418 77 197 3.0 3.0 0.00 0.00 0.00 85 1012.0
20260904054914 77 177 3.0 3.0 0.00 0.00 0.00 85 1011.8
20260904054409 77 195 2.0 5.0 0.00 0.00 0.00 86 1011.8
20260904053900 77 181 3.0 3.0 0.00 0.00 0.00 86 1012.0
20260904053358 77 176 3.0 3.0 0.00 0.00 0.00 85 1012.0
20260904052854 77 175 3.0 5.0 0.00 0.00 0.00 85 1012.0
20260904052350 78 174 4.0 6.0 0.00 0.00 0.00 85 1012.0
20260904051846 78 169 3.0 3.0 0.00 0.00 0.00 84 1011.8
20260904051342 78 191 3.0 3.0 0.00 0.00 0.00 84 1011.9
20260904050836 78 202 2.0 3.0 0.00 0.00 0.00 84 1011.8
20260904050333 78 192 2.0 2.0 0.00 0.00 0.00 84 1011.9
20260904045828 78 178 3.0 3.0 0.00 0.00 0.00 84 1011.9
20260904045323 78 184 3.0 3.0 0.00 0.00 0.00 84 1011.9
20260904044822 78 219 2.0 3.0 0.00 0.00 0.00 83 1012.0
20260904044319 78 196 2.0 5.0 0.00 0.00 0.00 83 1011.9
20260904043815 79 197 2.0 3.0 0.00 0.00 0.00 83 1012.0
20260904043311 79 244 1.0 2.0 0.00 0.00 0.00 83 1011.8
20260904042806 79 245 1.0 2.0 0.00 0.00 0.00 83 1011.9
20260904042306 79 230 2.0 3.0 0.00 0.00 0.00 82 1011.8
20260904041802 79 185 2.0 3.0 0.00 0.00 0.00 82 1012.0
20260904041259 79 204 2.0 3.0 0.00 0.00 0.00 82 1011.9
20260904040753 79 239 2.0 3.0 0.00 0.00 0.00 83 1011.9
20260904040249 79 220 2.0 2.0 0.00 0.00 0.00 83 1011.9
20260904035745 79 191 2.0 2.0 0.00 0.00 0.00 83 1011.8
20260904035241 79 208 2.0 3.0 0.00 0.00 0.00 83 1011.9
20260904034739 80 197 2.0 2.0 0.00 0.00 0.00 82 1011.9
20260904034236 80 174 3.0 3.0 0.00 0.00 0.00 82 1011.8
20260904033731 80 201 2.0 2.0 0.00 0.00 0.00 81 1012.0
20260904033228 80 203 2.0 2.0 0.00 0.00 0.00 81 1012.0
20260904032723 80 241 1.0 2.0 0.00 0.00 0.00 80 1011.7
20260904032222 80 187 2.0 2.0 0.00 0.00 0.00 80 1011.7
20260904031717 80 205 2.0 2.0 0.00 0.00 0.00 80 1011.8
20260904031213 80 233 2.0 2.0 0.00 0.00 0.00 80 1011.8
20260904030708 81 224 2.0 2.0 0.00 0.00 0.00 80 1011.8
20260904030203 81 211 2.0 2.0 0.00 0.00 0.00 78 1011.8
20260904025700 81 218 2.0 3.0 0.00 0.00 0.00 78 1011.7
20260904025154 81 256 1.0 3.0 0.00 0.00 0.00 78 1011.7
20260904024650 82 247 2.0 3.0 0.00 0.00 0.00 77 1011.7
20260904024145 82 191 3.0 3.0 0.00 0.00 0.00 76 1011.7
20260904023641 82 183 3.0 5.0 0.00 0.00 0.00 75 1011.5